{"data":{"norad_id":40975,"epoch":"2026-09-20T00:27:01.373760Z","epoch_age_seconds":52650,"freshness":"FRESH","line1":"1 40975U 15058M   26263.01876590  .00003704  00000+0  24929-3 0  9991","line2":"2 40975  64.7638 279.4916 0114117  18.8737 341.6557 15.03180502128476","mean_motion":15.03180502,"eccentricity":0.0114117,"inclination_deg":64.7638,"raan_deg":279.4916,"arg_perigee_deg":18.8737,"mean_anomaly_deg":341.6557,"bstar":0.00024929,"rev_number":12847,"period_min":95.796878557436,"perigee_km":477.95365912486,"apogee_km":636.23926654048,"semimajor_km":6935.2334628327,"source":"CELESTRAK","updated_at":"2026-09-20T09:00:48.030354Z"}}